[Iaude] MPEC P99: 2020 PY2 [a=1.06,e=0.55,i=4.7,H=26.2]

mpec at marsden.cfa.harvard.edu mpec at marsden.cfa.harvard.edu
Fri Aug 14 22:35:10 EDT 2020


M.P.E.C. 2020-P99                               Issued 2020 August 15, 02:33 UT

     The Minor Planet Electronic Circulars contain information on unusual
         minor planets and routine data on comets.  They are published
    on behalf of Division F of the International Astronomical Union by the
          Minor Planet Center, Smithsonian Astrophysical Observatory,
                          Cambridge, MA 02138, U.S.A.

             Prepared using the Tamkin Foundation Computer Network

                              MPC at CFA.HARVARD.EDU
            URL https://www.minorplanetcenter.net/    ISSN 1523-6714

                                    2020 PY2                                    


Observations:
     K20P02Y  C2020 08 12.51002422 59 24.311-13 13 04.52         21.98GVEP099F51
     K20P02Y* C2020 08 12.52141422 59 23.405-13 13 03.75         21.80iUEP099F51
     K20P02Y  C2020 08 12.53280322 59 22.500-13 13 02.86         21.74iUEP099F51
     K20P02Y  C2020 08 12.54425922 59 21.592-13 13 01.89         21.55iUEP099F51
     K20P02Y  C2020 08 14.46163422 57 43.920-13 11 11.08         21.57wUEP099F52
     K20P02Y  C2020 08 14.47512322 57 42.233-13 11 10.31         21.00wUEP099F52
     K20P02Y  C2020 08 14.48863922 57 40.460-13 11 09.66         21.47wUEP099F52
     K20P02Y  C2020 08 14.50214822 57 38.709-13 11 08.79         21.00wUEP099F52
     K20P02Y  C2020 08 14.54043822 57 33.737-13 11 04.77         21.44wUEP099F51
     K20P02Y  C2020 08 14.55159722 57 32.294-13 11 03.36         21.42wUEP099F51
     K20P02Y  C2020 08 14.57399322 57 29.437-13 10 59.92         21.12wUEP099F51

Observer details:
F51 Pan-STARRS 1, Haleakala.  Observers J. Bulger, K. Chambers, T. Lowe, A.
    Schultz, M. Willman.  Measurers S. Chastel, M. Huber, Y. Ramanjooloo, R.
    Wainscoat, R. Weryk, K. Chambers, T. de Boer, L. Denneau, J. Fairlamb, H.
    Flewelling, C.-C. Lin, E. Magnier.  1.8-m Ritchey-Chretien + CCD.
F52 Pan-STARRS 2, Haleakala.  Observers J. Bulger, T. Dukes, T. Lowe, A.
    Schultz, M. Willman.  Measurers K. Chambers, S. Chastel, T. de Boer, L.
    Denneau, J. Fairlamb, H. Flewelling, M. Huber, C.-C. Lin, E. Magnier, Y.
    Ramanjooloo, R. Wainscoat, R. Weryk.  1.8-m Ritchey-Chretien + CCD.

Orbital elements:
2020 PY2                                                 Earth MOID = 0.0011 AU
Epoch 2020 May 31.0 TT = JDT 2459000.5                  Veres
M 232.97565              (2000.0)            P               Q
n   0.89890444     Peri.  120.12301     +0.04490257     -0.99799260
a   1.0633111      Node   327.21188     +0.88584281     +0.06044303
e   0.5541447      Incl.    4.73054     +0.46180762     -0.01890527
P   1.10           H   26.2           G   0.15           U   9
Residuals in seconds of arc
200812 F51  0.0   0.0     200814 F52  0.3-  0.1-    200814 F51  0.0   0.0
200812 F51  0.0   0.0     200814 F52  0.3+  0.2+    200814 F51  0.0   0.0
200812 F51  0.0   0.0     200814 F52  0.1-  0.1+    200814 F51  0.0   0.0
200812 F51  0.0   0.0     200814 F52  0.0   0.0

Ephemeris:
2020 PY2                 a,e,i = 1.06, 0.55, 5                   q = 0.4741
Date    TT    R. A. (2000) Decl.     Delta      r    Elong.  Phase     V
2020 07 16    22 51 24.0 -13 55 22   0.3767  1.3082   134.4    33.7    26.1
...
2020 07 31    22 59 25.7 -13 24 35   0.2113  1.1970   146.5    27.9    24.5
...
2020 08 08    23 00 42.1 -13 16 00   0.1284  1.1305   153.7    23.4    23.1
...
2020 08 14    22 58 13.1 -13 10 30   0.06811 1.0772   159.8    19.0    21.5
2020 08 15    22 56 59.0 -13 09 08   0.05818 1.0680   161.0    18.0    21.1
2020 08 16    22 55 10.0 -13 07 17   0.04829 1.0588   162.3    16.9    20.6
...
2020 08 22    11 54 35.9 +13 34 09   0.01112 1.0016    26.8   152.9    25.5
...
2020 08 30    11 10 11.9 +13 17 59   0.09017 0.9209     9.8   169.2
...
2020 09 14    11 04 56.3 +12 43 01   0.2526  0.7594    10.9   165.4

M. P. C. Staff               (C) Copyright 2020 MPC           M.P.E.C. 2020-P99




More information about the Iaude mailing list